Vorticity
6 8 8 8 7 7 7 6 5 6 8 7 7 6 6 7 8 8 8 8 9 9 9 9 10 10 14 12 7 6 15 20 19 18 17 16 15 14 10 10 14 12 6 4 4 6 10
5 7 8 5 6 7 6 7 7 7 7 7 6 7 8 7 7 7 8 9 9 9 9 9 13 8 8 14 19 11 10 18 19 16 16 16 15 12 10 9 11 6 13 14 3 7 -2
5 7 6 5 7 7 6 6 5 7 6 6 6 7 6 6 7 8 8 10 9 9 7 14 6 17 14 19 10 16 7 1 5 8 9 9 7 8 13 10 12 11 12 9 9 9 9
5 6 5 5 6 6 6 5 5 6 6 7 7 7 6 5 9 9 9 9 8 7 13 9 14 10 2 13 7 -1 4 11 7 11 13 11 10 8 17 7 6 2 11 23 18 18 9
8 6 6 6 6 5 5 5 5 6 6 7 7 7 5 6 8 8 9 9 8 5 15 5 19 15 11 11 2 9 10 9 12 11 7 9 13 14 10 14 17 21 3 -1 17 9 10
7 7 7 6 6 5 5 5 6 5 6 4 4 6 6 6 8 8 9 9 7 13 7 10 12 -1 11 2 9 6 10 12 13 13 13 19 11 13 10 10 5 2 11 7 5 3 15
6 7 7 7 7 7 5 6 6 5 4 6 6 6 6 7 7 8 9 10 3 1 7 12 10 13 -4 3 11 3 11 12 16 10 13 2 17 10 7 8 6 8 10 8 -5 17 -11
7 7 8 7 8 7 6 6 5 5 5 7 6 6 8 8 8 8 9 9 11 -1 3 6 6 -1 2 9 11 4 16 14 15 10 12 7 11 7 6 4 4 7 7 7 32 -32 9
5 4 7 6 5 5 6 4 5 5 5 6 7 7 8 9 10 9 9 9 10 12 11 15 9 -1 2 14 3 10 13 8 5 5 9 13 4 5 5 4 5 12 11 4 3 7 10
12 -0 6 7 10 7 6 7 5 4 6 2 6 7 9 9 12 10 10 9 11 10 16 9 9 4 4 11 -7 8 7 13 11 2 15 3 1 -1 -4 1 10 28 6 6 7 18 -2
-4 5 15 3 7 6 7 7 5 4 3 2 2 8 9 9 9 12 9 9 12 12 6 9 7 -2 4 17 8 6 5 14 4 7 26 14 4 3 -0 10 13 -4 6 9 12 10 21
16 12 2 5 7 9 7 2 5 6 2 3 4 2 10 11 10 11 10 9 13 15 22 1 -4 -0 8 7 5 6 10 15 8 2 11 6 15 -4 7 8 7 7 14 52 23 19 15
9 9 12 6 7 14 8 2 4 0 2 6 7 3 9 8 9 12 10 11 19 8 9 18 2 2 4 7 7 2 4 7 16 11 10 4 7 -9 6 9 6 18 11 -4 11 6 2
17 15 14 7 4 13 9 7 1 -3 4 9 9 3 12 13 8 12 10 14 14 10 -3 2 4 8 9 6 12 2 7 7 8 8 23 5 5 -0 1 7 13 -0 15 14 10 7 -31
16 5 22 18 7 9 -1 -3 4 8 -2 11 2 8 7 7 18 9 11 19 0 15 17 12 9 16 13 4 11 11 8 10 3 3 23 9 14 14 -3 7 13 10 -7 14 7 27 18
4 10 -2 2 8 10 9 13 -6 -2 4 15 9 5 6 12 13 8 12 -4 -7 6 7 8 7 9 3 6 13 11 15 4 5 0 4 7 19 9 -1 11 8 11 11 3 13 9 12
9 -1 2 9 13 7 9 14 13 9 -13 13 6 6 15 12 10 7 9 1 13 10 15 16 11 -0 -1 2 10 4 15 6 13 3 5 6 8 18 6 7 5 10 4 5 10 2 4
-13 25 -1 14 5 -0 10 -9 21 1 18 16 -0 8 9 6 8 6 12 10 15 7 12 6 7 10 7 10 13 11 4 2 3 3 7 12 13 7 -2 11 10 5 5 -0 13 20 -2
-0 12 2 -4 23 21 9 16 8 11 3 13 3 -3 9 18 12 14 15 8 10 11 11 13 2 14 16 7 8 10 9 10 5 5 10 3 6 12 21 21 15 8 4 -1 8 27 19
8 -7 12 8 15 9 2 20 16 19 4 8 6 10 -4 8 14 14 9 14 7 6 13 11 0 10 10 8 8 3 10 9 11 5 9 7 13 -7 -15 -14 -9 -8 -2 5 20 12 1
8 -20 16 -6 3 -2 24 14 -4 13 18 18 15 8 1 -10 -9 -3 7 -4 -2 12 14 8 12 11 7 7 16 7 6 7 5 2 11 10 7 13 10 8 7 7 7 18 6 3 -2
-0 -4 21 15 1 8 12 15 -3 10 18 21 4 9 10 12 12 9 9 8 14 8 12 8 9 7 12 10 1 -11 21 11 2 14 12 8 -2 14 8 10 11 14 10 2 10 9 4
19 6 13 -16 -1 5 9 9 2 1 21 12 18 9 7 8 10 9 11 14 9 19 18 10 6 12 11 10 8 10 9 9 -3 12 11 5 11 11 20 21 11 39 63 39 13 7 8
21 9 4 6 -18 14 15 12 15 -2 13 13 14 12 8 4 14 10 10 10 15 15 11 4 12 12 6 12 11 12 9 9 9 8 10 -4 14 4 7 11 17 14 -3 3 12 3 5
16 19 7 7 3 12 -1 -9 14 -3 15 19 14 13 13 12 12 8 11 7 14 11 13 11 7 12 6 8 17 16 20 25 10 9 8 9 5 -2 -4 19 -16 20 23 20 13 -2 5
19 20 26 -0 0 -4 -15 22 9 14 11 15 14 13 16 8 15 22 10 8 15 16 15 7 11 8 10 5 14 8 -3 1 23 15 35 8 6 -19 27 7 -6 4 -1 15 6 2 33
5 15 20 17 20 6 12 7 7 10 2 23 10 23 11 10 10 7 7 1 10 22 3 15 9 14 11 7 5 5 10 -6 -1 6 28 18 11 -2 -4 -4 17 15 11 8 8 -8 6
11 9 2 8 8 13 14 10 9 13 -0 18 21 20 9 10 6 -3 -0 4 22 17 8 8 21 4 9 14 3 7 14 8 16 -6 2 15 13 29 39 15 21 41 23 -11 4 7 6
14 18 6 -3 11 16 12 12 6 11 5 18 25 17 20 15 -1 10 16 24 23 4 19 9 -5 -6 6 3 11 13 9 -5 14 -3 28 11 -23 -13 -23 12 -11 2 -8 9 7 7 6
Height
3127 3126 3124 3123 3122 3120 3119 3116 3115 3113 3110 3108 3106 3103 3101 3099 3096 3095 3093 3090 3087 3085 3083 3082 3080 3079 3079 3079 3079 3077 3076 3076 3075 3075 3076 3076 3076 3077 3078 3080 3082 3084 3085 3085 3085 3085 3083
3127 3126 3124 3123 3122 3121 3119 3117 3115 3112 3110 3108 3105 3102 3099 3097 3094 3092 3090 3088 3085 3083 3081 3079 3077 3076 3076 3078 3076 3075 3074 3074 3074 3074 3074 3074 3074 3074 3075 3076 3079 3080 3081 3082 3081 3081 3081
3125 3125 3124 3123 3121 3120 3119 3117 3115 3113 3110 3109 3105 3102 3099 3096 3093 3090 3088 3086 3083 3080 3079 3077 3076 3075 3074 3076 3074 3074 3073 3073 3071 3071 3071 3071 3071 3072 3073 3073 3075 3076 3079 3078 3077 3078 3077
3124 3124 3123 3121 3120 3119 3119 3116 3114 3113 3111 3108 3105 3101 3098 3095 3092 3089 3086 3084 3081 3078 3076 3075 3074 3074 3074 3074 3073 3072 3070 3071 3069 3068 3068 3068 3068 3069 3071 3072 3073 3074 3075 3075 3074 3074 3075
3122 3122 3121 3121 3119 3117 3116 3116 3114 3111 3110 3107 3104 3101 3097 3093 3090 3087 3085 3083 3079 3076 3075 3074 3073 3073 3074 3073 3071 3071 3070 3068 3067 3066 3066 3066 3066 3067 3068 3069 3071 3071 3071 3072 3071 3070 3069
3120 3120 3119 3118 3117 3116 3114 3113 3112 3111 3109 3107 3104 3100 3096 3092 3089 3086 3083 3080 3078 3075 3073 3073 3073 3075 3075 3072 3071 3070 3068 3067 3065 3064 3064 3063 3064 3064 3066 3066 3068 3068 3068 3068 3067 3066 3062
3118 3118 3117 3117 3116 3114 3113 3112 3111 3109 3106 3105 3102 3099 3095 3091 3087 3084 3082 3079 3079 3076 3071 3071 3072 3071 3073 3071 3069 3068 3067 3064 3063 3063 3062 3062 3062 3061 3061 3062 3064 3064 3064 3063 3063 3062 3058
3115 3115 3115 3114 3113 3112 3111 3110 3109 3107 3105 3104 3100 3096 3093 3091 3087 3083 3080 3078 3076 3076 3071 3069 3070 3070 3069 3068 3068 3067 3066 3066 3063 3062 3060 3060 3058 3060 3060 3061 3062 3061 3060 3060 3059 3059 3057
3113 3112 3112 3111 3110 3109 3108 3107 3106 3104 3104 3100 3098 3094 3091 3088 3085 3082 3079 3077 3074 3072 3071 3067 3068 3069 3068 3067 3065 3064 3063 3060 3060 3059 3058 3058 3059 3059 3060 3059 3060 3059 3057 3056 3056 3052 3052
3108 3109 3108 3107 3107 3106 3106 3105 3103 3102 3100 3098 3095 3092 3089 3086 3085 3080 3077 3074 3072 3071 3068 3068 3066 3064 3064 3063 3063 3061 3060 3061 3058 3058 3056 3057 3058 3059 3059 3057 3055 3055 3055 3054 3052 3051 3050
3105 3104 3104 3103 3103 3103 3102 3102 3100 3099 3097 3095 3093 3090 3088 3083 3080 3078 3076 3072 3070 3070 3070 3066 3063 3062 3062 3064 3063 3062 3059 3056 3057 3057 3057 3057 3055 3056 3056 3053 3052 3053 3051 3049 3047 3047 3046
3098 3099 3099 3098 3099 3099 3099 3098 3097 3095 3093 3091 3089 3087 3084 3082 3078 3076 3073 3070 3069 3071 3063 3061 3059 3059 3060 3059 3058 3057 3057 3056 3056 3055 3054 3054 3053 3053 3053 3052 3051 3049 3046 3043 3043 3044 3045
3094 3094 3093 3093 3093 3094 3093 3093 3092 3090 3089 3087 3085 3083 3081 3079 3077 3073 3071 3069 3069 3063 3061 3058 3056 3056 3056 3057 3056 3056 3055 3054 3054 3055 3054 3053 3052 3051 3051 3052 3049 3047 3043 3044 3046 3045 3045
3088 3088 3087 3087 3087 3088 3088 3088 3086 3085 3084 3082 3081 3078 3077 3075 3072 3071 3069 3068 3064 3055 3053 3053 3053 3053 3054 3053 3053 3053 3053 3051 3051 3051 3052 3052 3051 3052 3050 3049 3049 3047 3048 3052 3060 3051 3041
3083 3082 3082 3080 3081 3082 3081 3081 3081 3080 3080 3078 3075 3074 3072 3070 3068 3066 3066 3064 3057 3053 3052 3051 3050 3049 3051 3051 3052 3050 3049 3048 3048 3048 3051 3050 3051 3049 3048 3047 3049 3047 3049 3050 3049 3045 3041
3077 3077 3076 3076 3075 3075 3075 3075 3075 3074 3074 3071 3069 3069 3068 3065 3063 3062 3061 3058 3054 3051 3050 3049 3048 3047 3046 3047 3048 3048 3046 3046 3045 3046 3046 3047 3048 3047 3046 3046 3046 3046 3048 3048 3048 3052 3044
3071 3071 3071 3071 3070 3070 3069 3070 3069 3068 3067 3066 3064 3062 3062 3061 3059 3057 3054 3051 3049 3047 3047 3048 3045 3043 3043 3043 3043 3044 3043 3043 3042 3043 3043 3043 3044 3047 3045 3044 3043 3044 3043 3044 3045 3044 3042
3064 3064 3064 3065 3065 3065 3064 3065 3062 3062 3062 3060 3059 3057 3056 3055 3055 3051 3048 3046 3045 3043 3042 3043 3042 3041 3040 3039 3040 3041 3040 3040 3040 3040 3040 3040 3040 3041 3041 3039 3038 3038 3038 3039 3039 3039 3035
3057 3059 3059 3059 3059 3058 3057 3058 3056 3055 3055 3054 3051 3051 3049 3048 3046 3045 3043 3042 3040 3038 3038 3038 3038 3037 3036 3037 3038 3035 3036 3037 3037 3038 3037 3037 3036 3037 3036 3038 3035 3033 3033 3034 3033 3032 3027
3050 3053 3053 3053 3052 3052 3052 3051 3050 3049 3048 3048 3047 3044 3043 3040 3040 3040 3039 3037 3035 3033 3032 3033 3034 3033 3032 3031 3032 3030 3031 3033 3033 3034 3034 3033 3032 3032 3031 3029 3030 3029 3028 3027 3027 3025 3019
3042 3043 3047 3047 3046 3046 3045 3044 3044 3043 3041 3041 3038 3037 3035 3034 3035 3035 3034 3032 3031 3029 3029 3029 3028 3028 3028 3027 3026 3025 3025 3027 3028 3029 3029 3029 3027 3027 3025 3024 3023 3022 3021 3020 3018 3017 3014
3034 3037 3038 3040 3040 3039 3038 3037 3037 3036 3034 3033 3031 3030 3028 3027 3027 3028 3028 3025 3025 3024 3025 3024 3024 3024 3024 3023 3022 3020 3021 3022 3024 3023 3024 3024 3023 3021 3020 3018 3016 3014 3013 3012 3011 3009 3006
3025 3029 3031 3032 3033 3033 3031 3030 3029 3028 3027 3024 3022 3021 3020 3018 3019 3021 3021 3020 3020 3020 3019 3019 3020 3020 3019 3019 3018 3017 3017 3017 3018 3018 3019 3020 3018 3018 3015 3013 3012 3008 3001 3002 3002 3001 3000
3017 3019 3023 3023 3025 3025 3024 3024 3022 3020 3019 3017 3015 3013 3012 3010 3010 3014 3015 3015 3015 3015 3014 3014 3015 3015 3016 3014 3014 3013 3013 3012 3013 3013 3013 3013 3013 3015 3011 3011 3014 2997 2995 2995 2995 2994 2992
3008 3010 3014 3015 3018 3018 3019 3017 3015 3013 3011 3010 3007 3006 3004 3001 3003 3007 3009 3009 3008 3008 3008 3008 3009 3011 3011 3011 3010 3009 3008 3008 3005 3006 3006 3007 3008 3009 3008 3004 2996 2991 2988 2989 2988 2987 2986
3000 3001 3004 3006 3008 3010 3011 3010 3008 3005 3003 3001 3000 2998 2996 2996 2996 2999 3002 3002 3002 3002 3002 3002 3003 3004 3005 3005 3004 3003 3001 3000 2998 2997 2998 3000 3001 3004 3002 3001 2997 2983 2983 2984 2984 2978 2977
2994 2994 2996 2998 3000 3003 3003 3001 2999 2997 2995 2994 2992 2990 2990 2991 2991 2994 2994 2996 2996 2995 2995 2996 2996 2997 2999 2998 2998 2998 2996 2995 2993 2990 2990 2990 2993 2993 2995 2993 2984 2978 2978 2979 2982 2977 2972
2988 2988 2989 2991 2993 2994 2993 2992 2991 2988 2987 2986 2984 2982 2985 2983 2985 2987 2989 2989 2989 2989 2990 2991 2993 2992 2992 2993 2992 2991 2988 2987 2985 2983 2982 2983 2985 2984 2987 2988 2980 2972 2973 2974 2972 2968 2968
2982 2984 2981 2982 2984 2984 2983 2981 2982 2980 2979 2977 2976 2976 2977 2979 2980 2981 2982 2983 2984 2984 2985 2984 2985 2986 2985 2984 2984 2983 2981 2979 2978 2978 2976 2979 2977 2975 2977 2972 2970 2969 2968 2968 2966 2965 2963